ASTRA 2G (40364 NORAD) Tracking and Keplerian Element Data

This shows tracking and keplerian element data for the satellite.

Feedback or suggestion? Click here.




ElementValue
Catalog40364
NameASTRA 2G
Epoch Orbit2473
Epoch Day270.20188338
Epoch Year2021
RAAN354.1275
Inclination0.0283
Eccentricity0.0001695
Argument of Perigee112.5459
Mean Anonmoly0.4367
Mean Motion1.00275111
Decay Rate1.49E-06
L11 40364U 14089A 21270.20188338 .00000149 00000-0 00000+0 0 9997
L22 40364 0.0283 354.1275 0001695 112.5459 0.4367 1.00275111 24731

Live tracking and technical data element details for ASTRA 2G (NORAD 40364). ASTRA 2G can be tracked NOW for your location showing map with azimuth and elevation plus other details from your city location.

Track the satellite on the map from your city or location and see movement details for azimuth, elevation, latitude, longitude, range, height, and movement on the map or in text.







IsCatalogInMostPopularTable: catalog: 40364, numindb: 522
Update: records affected: 1



GetName: 40364 ASTRA 2G

Hit Count: updated at: Tue, 28 Sep 2021 16:37:46 GMT